Weather History for Carmi, IL

Change the Weather History Date:

Thursday, September 12, 2013

  Actual Average (KEVV) Record (KEVV)
Temperature  
Mean Temperature 76 °F 71 °F  
Max Temperature 87 °F 83 °F 99 °F (1897)
Min Temperature 66 °F 59 °F 41 °F (1940)
Degree Days  
Heating Degree Days 0 1  
Month to date heating degree days 2  
Since 1 July heating degree days 3  
Cooling Degree Days 12 6  
Month to date cooling degree days 96  
Year to date cooling degree days 1295  
Growing Degree Days 26 (Base 50)    
Moisture  
Dew Point 67 °F    
Average Humidity 74    
Maximum Humidity 93    
Minimum Humidity 49    
Precipitation  
Precipitation 0.00 in 0.10 in 2.18 in (2006)
Month to date precipitation 1.20  
Year to date precipitation 32.12  
Snow  
Snow 0.00 in 0.00 in 0.00 in (2002)
Month to date snowfall 0.0  
Since 1 July snowfall 0.0  
Since 1 September snowfall 0.0  
Snow Depth -    
Sea Level Pressure  
Sea Level Pressure 30.01 in    
Wind  
Wind Speed 4 mph (NW)    
Max Wind Speed 14 mph    
Max Gust Speed -    
Visibility 8 miles    
Events      
T = Trace of Precipitation, MM = Missing Value Source: NWS Daily Summary

Daily Weather History Graph

Daily Weather History Graph

Search for Another Location

Airport:

Trip Planner

Search our weather history database for the weather conditions in past years. The results will help you decide how hot, cold, wet, or windy it might be!

Date:

Astronomy

Sep. 12, 2013 Rise Set
Actual Time 6:31 AM CDT 7:04 PM CDT
Civil Twilight 6:05 AM CDT 7:31 PM CDT
Nautical Twilight 5:34 AM CDT 8:02 PM CDT
Astronomical Twilight 5:02 AM CDT 8:34 PM CDT
Moon 1:53 PM CDT (9/12) No Moon Set
Length of Visible Light 13h 25m
Length of Day
12h 32m
Waxing Crescent, 50% of the Moon is Illuminated
Sep 12
Waxing Crescent
Sep 12
First Quarter
Sep 19
Full
Sep 26
Last Quarter
Oct 4
New

Hourly Weather History & Observations

Time (CDT) Temp. Heat Index Dew Point Humidity Pressure Visibility Wind Dir Wind Speed Gust Speed Precip Events Conditions
12:15 AM 72.1 °F - 69.8 °F 92% 30.04 in 7.0 mi SSW 3.5 mph - N/A   Clear
12:35 AM 72.0 °F - 69.8 °F 93% 30.04 in 5.0 mi Calm Calm - N/A   Clear
12:55 AM 71.4 °F - 69.1 °F 92% 30.04 in 5.0 mi Calm Calm - N/A   Clear
1:15 AM 72.0 °F - 69.4 °F 92% 30.04 in 7.0 mi Calm Calm - N/A   Clear
1:35 AM 71.2 °F - 68.7 °F 92% 30.04 in 5.0 mi Calm Calm - N/A   Clear
1:55 AM 71.1 °F - 68.9 °F 93% 30.03 in 5.0 mi SSE 3.5 mph - N/A   Clear
2:15 AM 70.9 °F - 68.9 °F 93% 30.03 in 5.0 mi SSE 4.6 mph - N/A   Clear
2:35 AM 71.6 °F - 68.9 °F 91% 30.03 in 7.0 mi South 5.8 mph - N/A   Clear
2:55 AM 70.9 °F - 68.4 °F 92% 30.02 in 7.0 mi South 3.5 mph - N/A   Clear
3:15 AM 70.3 °F - 67.8 °F 92% 30.02 in 5.0 mi Calm Calm - N/A   Clear
3:35 AM 70.5 °F - 68.5 °F 93% 30.02 in 7.0 mi Calm Calm - N/A   Clear
3:55 AM 69.6 °F - 67.3 °F 92% 30.02 in 5.0 mi Calm Calm - N/A   Clear
4:15 AM 71.8 °F - 69.1 °F 91% 30.02 in 7.0 mi SSW 4.6 mph - N/A   Clear
4:35 AM 72.7 °F - 69.6 °F 90% 30.02 in 7.0 mi SSW 4.6 mph - N/A   Clear
4:55 AM 72.1 °F - 69.3 °F 91% 30.01 in 7.0 mi Calm Calm - N/A   Clear
5:15 AM 72.5 °F - 70.0 °F 92% 30.02 in 7.0 mi SSW 4.6 mph - N/A   Clear
5:35 AM 72.9 °F - 69.8 °F 90% 30.02 in 7.0 mi SW 3.5 mph - N/A   Clear
5:55 AM 73.2 °F - 70.0 °F 90% 30.02 in 7.0 mi Calm Calm - N/A   Scattered Clouds
6:15 AM 72.7 °F - 70.0 °F 91% 30.03 in 7.0 mi Calm Calm - N/A   Scattered Clouds
6:35 AM 72.3 °F - 69.4 °F 91% 30.03 in 7.0 mi Calm Calm - N/A   Clear
6:55 AM 71.8 °F - 69.4 °F 92% 30.03 in 4.0 mi West 4.6 mph - N/A   Clear
7:15 AM 73.0 °F - 70.5 °F 92% 30.04 in 4.0 mi West 5.8 mph - N/A   Clear
7:35 AM 74.7 °F - 71.6 °F 90% 30.04 in 5.0 mi West 5.8 mph - N/A   Clear
7:55 AM 76.1 °F - 72.1 °F 87% 30.04 in 5.0 mi WNW 6.9 mph - N/A   Clear
8:15 AM 77.2 °F - 72.0 °F 84% 30.04 in 7.0 mi NW 5.8 mph - N/A   Clear
8:35 AM 77.7 °F - 71.2 °F 80% 30.05 in 7.0 mi NW 5.8 mph - N/A   Mostly Cloudy
8:55 AM 77.0 °F - 71.6 °F 83% 30.05 in 7.0 mi NW 8.1 mph - N/A   Mostly Cloudy
9:15 AM 79.0 °F - 71.8 °F 78% 30.05 in 10.0 mi NNW 6.9 mph - N/A   Clear
9:35 AM 79.9 °F - 70.7 °F 73% 30.05 in 10.0 mi NNW 8.1 mph - N/A   Clear
9:55 AM 79.7 °F - 70.5 °F 73% 30.06 in 10.0 mi NNW 10.4 mph - N/A   Scattered Clouds
10:15 AM 81.1 °F 84.9 °F 70.7 °F 70% 30.05 in 10.0 mi North 10.4 mph - N/A   Scattered Clouds
10:35 AM 80.6 °F 83.8 °F 69.4 °F 69% 30.06 in 10.0 mi North 9.2 mph - N/A   Scattered Clouds
10:55 AM 81.1 °F 84.4 °F 69.4 °F 67% 30.06 in 10.0 mi North 8.1 mph - N/A   Scattered Clouds
11:15 AM 80.8 °F 83.9 °F 69.4 °F 68% 30.06 in 10.0 mi North 9.2 mph - N/A   Mostly Cloudy
11:35 AM 79.3 °F - 68.5 °F 69% 30.06 in 10.0 mi NW 9.2 mph - N/A   Mostly Cloudy
11:55 AM 79.7 °F - 69.6 °F 71% 30.05 in 10.0 mi North 6.9 mph - N/A   Scattered Clouds
12:15 PM 80.6 °F 83.8 °F 69.4 °F 69% 30.05 in 10.0 mi North 4.6 mph - N/A   Scattered Clouds
12:35 PM 82.0 °F 85.1 °F 68.5 °F 63% 30.03 in 10.0 mi Calm Calm - N/A   Clear
12:55 PM 82.6 °F 85.7 °F 68.2 °F 62% 30.02 in 10.0 mi SSW 3.5 mph - N/A   Clear
1:15 PM 83.7 °F 86.0 °F 66.4 °F 56% 30.01 in 10.0 mi Calm Calm - N/A   Clear
1:35 PM 84.7 °F 87.4 °F 66.7 °F 55% 30.00 in 10.0 mi Calm Calm - N/A   Clear
1:55 PM 86.0 °F 89.1 °F 67.6 °F 54% 30.00 in 10.0 mi Calm Calm - N/A   Clear
2:15 PM 86.0 °F 89.7 °F 68.7 °F 56% 30.00 in 10.0 mi NW 9.2 mph - N/A   Scattered Clouds
2:35 PM 87.6 °F 91.9 °F 69.1 °F 54% 29.99 in 10.0 mi NW 10.4 mph - N/A   Scattered Clouds
2:55 PM 84.7 °F 87.4 °F 67.1 °F 55% 29.98 in 10.0 mi NW 8.1 mph - N/A   Mostly Cloudy
3:15 PM 85.1 °F 87.7 °F 66.9 °F 54% 29.97 in 10.0 mi NNW 13.8 mph - N/A   Scattered Clouds
3:35 PM 84.2 °F 86.8 °F 67.1 °F 56% 29.97 in 10.0 mi NNW 11.5 mph - N/A   Clear
3:55 PM 83.7 °F 86.0 °F 66.4 °F 56% 29.97 in 10.0 mi NNW 13.8 mph - N/A   Clear
4:15 PM 82.4 °F 84.1 °F 64.6 °F 55% 29.96 in 10.0 mi NNW 8.1 mph - N/A   Clear
4:35 PM 81.5 °F 82.8 °F 63.3 °F 54% 29.96 in 10.0 mi NNW 6.9 mph - N/A   Clear
4:55 PM 82.0 °F 82.8 °F 61.7 °F 50% 29.96 in 10.0 mi NW 5.8 mph - N/A   Clear
5:15 PM 81.3 °F 82.3 °F 62.2 °F 52% 29.96 in 10.0 mi NW 6.9 mph - N/A   Clear
5:35 PM 82.0 °F 83.1 °F 62.8 °F 52% 29.96 in 10.0 mi NW 4.6 mph - N/A   Clear
5:55 PM 81.5 °F 82.1 °F 60.8 °F 49% 29.96 in 10.0 mi NW 6.9 mph - N/A   Clear
6:15 PM 80.2 °F 81.5 °F 62.8 °F 55% 29.96 in 10.0 mi WNW 5.8 mph - N/A   Clear
6:35 PM 78.3 °F - 62.4 °F 58% 29.96 in 10.0 mi NW 5.8 mph - N/A   Clear
6:55 PM 76.1 °F - 63.5 °F 65% 29.95 in 10.0 mi West 3.5 mph - N/A   Clear
7:15 PM 74.5 °F - 63.5 °F 68% 29.96 in 10.0 mi West 4.6 mph - N/A   Clear
7:35 PM 72.7 °F - 63.5 °F 73% 29.97 in 10.0 mi West 4.6 mph - N/A   Clear
7:55 PM 72.5 °F - 63.5 °F 73% 29.97 in 10.0 mi WNW 5.8 mph - N/A   Clear
8:15 PM 71.4 °F - 63.3 °F 76% 29.98 in 10.0 mi West 5.8 mph - N/A   Clear
8:35 PM 71.2 °F - 62.6 °F 74% 29.98 in 10.0 mi West 5.8 mph - N/A   Clear
8:55 PM 70.7 °F - 62.8 °F 76% 29.98 in 10.0 mi West 5.8 mph - N/A   Scattered Clouds
9:15 PM 70.7 °F - 63.7 °F 78% 30.00 in 10.0 mi NW 6.9 mph - N/A   Mostly Cloudy
9:35 PM 73.0 °F - 62.8 °F 70% 30.00 in 10.0 mi NW 6.9 mph - N/A   Overcast
9:55 PM 72.0 °F - 61.0 °F 68% 30.00 in 10.0 mi NW 6.9 mph - N/A   Scattered Clouds
10:15 PM 70.0 °F - 59.7 °F 70% 30.00 in 10.0 mi NW 6.9 mph - N/A   Clear
10:35 PM 69.1 °F - 57.6 °F 67% 30.00 in 10.0 mi NW 6.9 mph - N/A   Clear
10:55 PM 67.5 °F - 56.7 °F 68% 30.00 in 10.0 mi NW 6.9 mph - N/A   Clear
11:15 PM 66.6 °F - 55.4 °F 67% 30.00 in 10.0 mi NW 6.9 mph - N/A   Clear
11:35 PM 66.2 °F - 54.7 °F 66% 30.00 in 10.0 mi NNW 9.2 mph - N/A   Clear
11:55 PM 67.5 °F - 53.4 °F 61% 30.00 in 10.0 mi NNW 9.2 mph - N/A   Clear